Regional Weather Roundup
Issued by NWS Cleveland, OH

Home | Current Version | Previous Version | Graphics & Text | Print | Product List | Glossary On
Versions: 1 2 3 4 5 6 7 8 9 10 11 12 13 14 15 16 17 18 19 20 21 22 23 24 25 26 27 28 29 30 31 32 33 34 35 36 37 38 39 40 41 42 43 44 45 46 47 48 49 50
000
ASUS41 KCLE 290910
RWRCLE
OHIO REGIONAL WEATHER ROUNDUP
NATIONAL WEATHER SERVICE WILMINGTON, OH
500 AM EDT SAT AUG 29 2015

NOTE: "FAIR" INDICATES FEW OR NO CLOUDS BELOW 12,000 FEET WITH NO
SIGNIFICANT WEATHER AND/OR OBSTRUCTIONS TO VISIBILITY.

OHZ001>008-015>018-024>027-034-035-043-044-291000-
   NORTHWEST OHIO

CITY           SKY/WX    TMP DP  RH WIND       PRES   REMARKS
DEFIANCE       CLOUDY    63  58  83 CALM      30.12S
FINDLAY        CLOUDY    63  58  83 SE6       30.12S
TOLEDO EXPRESS MOCLDY    60  58  92 CALM      30.12S
TOLEDO EXEC    MOCLDY    63  57  81 S3        30.13S
LIMA           CLOUDY    60  57  89 SE5       30.12S
$$

OHZ009>014-019>023-028>033-038-089-291000-
   NORTHEAST OHIO

CITY           SKY/WX    TMP DP  RH WIND       PRES   REMARKS
CLE-HOPKINS    MOCLDY    59  55  87 CALM      30.15F
CLE-LAKEFRONT  PTCLDY    63  56  78 S10       30.12F
CUY CO. ARPT   NOT AVBL
LORAIN-ELYRIA  PTCLDY    57  55  93 S5        30.14F
ASHTABULA      PTCLDY    53  52  96 CALM      30.16F
AKRON-CANTON   PTCLDY    60  54  80 SE3       30.15F
WOOSTER        PTCLDY    49  48  97 CALM      30.16S FOG
MANSFIELD      MOCLDY    60  57  89 S3        30.15S
YOUNGSTOWN     PTCLDY    53  52  96 SE3       30.15F
$$

OHZ042-051>053-060>062-070>072-077>081-291000-
  SOUTHWEST OHIO

CITY           SKY/WX    TMP DP  RH WIND       PRES   REMARKS
CINC-COVINGTON CLOUDY    68  59  73 SE7       30.12R
CINC-LUNKEN    MOCLDY    61  60  97 CALM      30.12S
HAMILTON       MOCLDY    60  59  96 CALM      30.12S
DAYTON         CLOUDY    64  59  83 S5        30.13S
WRIGHT-PAT AFB CLOUDY    63  58  83 E1        30.12S
DAYTON GENERAL MOCLDY    66  57  72 MISG      30.12R
WILMINGTON     PTCLDY    61  56  83 SE5       30.13S
$$

OHZ036-037-039>041-045>050-054>059-063>069-073>076-082>088-291000-
  CENTRAL AND SOUTHEAST OHIO

CITY           SKY/WX    TMP DP  RH WIND       PRES   REMARKS
COLUMBUS       PTCLDY    59  56  89 CALM      30.13S
OSU AIRPORT    PTCLDY    60  57  89 CALM      30.14R
BOLTON FIELD   PTCLDY    56  55  98 CALM      30.15R
RICKENBACK AFB CLEAR     56  55  96 CALM      30.14S FOG
NEWARK         CLEAR     52  52 100 CALM      30.15R FOG
MARION         CLOUDY    60  56  86 CALM      30.14S
LANCASTER      CLEAR     53  51  93 CALM      30.15S FOG
ZANESVILLE     CLEAR     54  51  90 CALM      30.15S
NEW PHILLY     FOG       51  50  96 CALM      30.16S VSB 3/4
$$



USA.gov is the U.S. government's official web portal to all federal, state and local government web resources and services.